Вернуться в каталог

FENGYUN 1C DEB

АктивенLEO
NORAD 37707·DEBRIS·🇨🇳 China

Запущен May 10, 1999 с Taiyuan Satellite Launch Center

Loading…

Ближайшие Пролёты (ближайшие 24 часа)

TLE

СвежийSource: Space-Track

Эпоха: Sep 14, 2026, 10:11 UTC

1 37707U 99025ELY 26257.42485219  .00001104  00000-0  22626-3 0  9993
2 37707 100.1987 328.3213 0139663 301.8861 117.9379 14.57757061895810

Отслеживайте FENGYUN 1C DEB в реальном времени с AllMySat

Download on the App Store